Location: Newark
(37.9800°N, 91.3000°W)
Time: 09:19:21
(UTC+00:00)

N. Korean satellite - Pass Details

Date: 23 October 2019
Orbit: 456 x 506 km, 97.2° (Epoch: 13 November)

Event Time Altitude Azimuth Distance (km) Brightness Sun altitude
Rises 11:23:44 0° 23° (NNE) 2,572 10.5 -12.0°
Reaches altitude 10° 11:25:59 10° 35° (NE) 1,694 9.7 -11.6°
Maximum altitude 11:29:13 29° 97° (E) 928 8.9 -11.0°
Drops below altitude 10° 11:32:28 10° 159° (SSE) 1,701 9.7 -10.3°
Sets 11:34:44 0° 171° (S) 2,585 10.5 -9.9°
